Header for Extended Forecast Station List Page

Search by: ID | Name | Date | Parm | Value | Avg | % Avg
Sort by: ID | Name | Date | Parm | Value | Avg | % Avg

Enter search or view all records.

Click on id for station plot
#IDNameDateParmValueAvg% Avg
0LEOI1KOOTENAI-AT LEONIA08-13-2018DISCHARGE (KAF)1805195193
1FCFM8NF FLATHEAD-NEAR COLUMBIA FALLS08-13-2018DISCHARGE (KAF)18025371
2WGCM8MF FLATHEAD-NEAR WEST GLACIER08-13-2018DISCHARGE (KAF)15420974
3CFMM8FLATHEAD-AT COLUMBIA FALLS08-13-2018DISCHARGE (KAF)932113782
4DLGM8CLARK FORK-AT DEER LODGE08-13-2018DISCHARGE (KAF)8754162
5DRMM8CLARK FORK-NR DRUMMOND08-13-2018DISCHARGE (KAF)185MM
6RCCM8ROCK CREEK-NEAR CLINTON08-13-2018DISCHARGE (KAF)7060117
7BONM8BLACKFOOT-NEAR BONNER08-13-2018DISCHARGE (KAF)179158113
8ABOM8CLARK FORK-ABOVE MISSOULA08-13-2018DISCHARGE (KAF)447369121
9BITM8BITTERROOT-NEAR MISSOULA08-13-2018DISCHARGE (KAF)19322785
10BELM8CLARK FORK-BELOW MISSOULA08-13-2018DISCHARGE (KAF)646603107
11STRM8ST. REGIS-NEAR ST. REGIS08-13-2018DISCHARGE (KAF)253183
12SRGM8CLARK FORK-AT ST REGIS08-13-2018DISCHARGE (KAF)789785100
13PRTI1PRIEST-NEAR PRIEST RIVER08-13-2018DISCHARGE (KAF)7618441
14SPOW1SPOKANE-AT SPOKANE08-13-2018DISCHARGE (KAF)449MM
15SATI1ST MARIES-NEAR SANTA08-13-2018DISCHARGE (KAF)161983
16CIBW1COLUMBIA-AT INTL BOUNDARY08-13-2018DISCHARGE (KAF)16113MM
17LAUW1KETTLE-AT LAURIER08-13-2018DISCHARGE (KAF)9013169
18TONW1OKANOGAN-NEAR TONASKET08-13-2018DISCHARGE (KAF)25828491
19PATW1METHOW-NEAR PATEROS08-13-2018DISCHARGE (KAF)9510888
20ARDW1ENTIAT-NEAR ARDENVOIR08-13-2018DISCHARGE (KAF)202582
21PESW1WENATCHEE-AT PESHASTIN08-13-2018DISCHARGE (KAF)20725183
22EASW1YAKIMA-AT EASTON08-13-2018DISCHARGE (KAF)276442
23TNAW1TEANAWAY-BELOW FORKS08-13-2018DISCHARGE (KAF)101569
24UMTW1YAKIMA-AT UMTANUM08-13-2018DISCHARGE (KAF)424408104
25CLFW1NACHES-NEAR CLIFFDEL08-13-2018DISCHARGE (KAF)718089
26NACW1NACHES-NEAR NACHES08-13-2018DISCHARGE (KAF)14793158
27PARW1YAKIMA-NEAR PARKER08-13-2018DISCHARGE (KAF)16222473
28KIOW1YAKIMA-AT KIONA08-13-2018DISCHARGE (KAF)41851581
29CHEI1FALL RIVER-NEAR CHESTER08-13-2018DISCHARGE (KAF)10493112
30ANTI1HENRYS FORK-AT ST. ANTHONY08-13-2018DISCHARGE (KAF)476323147
31TEAI1TETON-NEAR ST. ANTHONY08-13-2018DISCHARGE (KAF)147143103
32REXI1HENRYS FORK-AT REXBURG08-13-2018DISCHARGE (KAF)569396144
33JKSW4SNAKE-NEAR JACKSON08-13-2018DISCHARGE (KAF)684589116
34ALPW4SNAKE-NEAR ALPINE08-13-2018DISCHARGE (KAF)819706116
35HEII1SNAKE-NEAR HEISE08-13-2018DISCHARGE (KAF)15481187130
36SIFI1SNAKE-AB EAGLE ROCK NR IDAHO FALLS08-13-2018DISCHARGE (KAF)15731006156
37SHYI1SNAKE-NEAR SHELLEY08-13-2018DISCHARGE (KAF)1525852179
38SNAI1SNAKE-AT BLACKFOOT08-13-2018DISCHARGE (KAF)1240603206
39BFTI1SNAKE-NEAR BLACKFOOT08-13-2018DISCHARGE (KAF)1248628199
40PIHI1PORTNEUF-AT POCATELLO08-13-2018DISCHARGE (KAF)4340109
41MILI1SNAKE-AT MILNER08-13-2018DISCHARGE (KAF)5522425
42HOTI1BRUNEAU-NEAR HOT SPRINGS08-13-2018DISCHARGE (KAF)172278
43SWAI1SNAKE-BELOW SWAN FALLS08-13-2018DISCHARGE (KAF)1915222986
44HWRI1BIG LOST-AT HOWELL RANCH NEAR CHILLY08-13-2018DISCHARGE (KAF)253084
45HALI1BIG WOOD-AT HAILEY08-13-2018DISCHARGE (KAF)374877
46BIGI1BOISE-AT GLENWOOD BRIDGE08-13-2018DISCHARGE (KAF)108102106
47PARI1BOISE-NEAR PARMA08-13-2018DISCHARGE (KAF)20822493
48VALO3MALHEUR-NEAR VALE08-13-2018DISCHARGE (KAF)3327122
49EMMI1PAYETTE-NEAR EMMETT08-13-2018DISCHARGE (KAF)28537975
50WSRI1WEISER-NEAR WEISER08-13-2018DISCHARGE (KAF)445089
51WEII1SNAKE-AT WEISER08-13-2018DISCHARGE (KAF)2827323887
52WHBI1SALMON-AT WHITEBIRD08-13-2018DISCHARGE (KAF)1131113799
53TRYO3GRANDE RONDE-TROY08-13-2018DISCHARGE (KAF)13521065
54ANAW1SNAKE-NEAR ANATONE08-13-2018DISCHARGE (KAF)4375482291
55ORFI1CLEARWATER-AT OROFINO08-13-2018DISCHARGE (KAF)42550384
56SPDI1CLEARWATER-AT SPALDING08-13-2018DISCHARGE (KAF)12891154112
57TCHW1WALLA WALLA-NEAR TOUCHET08-13-2018DISCHARGE (KAF)152756
58GIBO3UMATILLA-NEAR GIBBON08-13-2018DISCHARGE (KAF)121675
59PDTO3UMATILLA-AT PENDLETON08-13-2018DISCHARGE (KAF)162367
60MYKO3MCKAY CREEK-NEAR PILOT ROCK08-13-2018DISCHARGE (KAF)33105
61UMAO3UMATILLA-NEAR UMATILLA08-13-2018DISCHARGE (KAF)5122231
62MONO3NF JOHN DAY-AT MONUMENT08-13-2018DISCHARGE (KAF)284168
63SERO3JOHN DAY-AT SERVICE CK08-13-2018DISCHARGE (KAF)497863
64MODO3DESCHUTES-AT MOODY NR BIGGS08-13-2018DISCHARGE (KAF)1029114890
65PITW1KLICKITAT-NEAR PITT08-13-2018DISCHARGE (KAF)18719496
66HODO3HOOD-NEAR TUCKER BRIDGE08-13-2018DISCHARGE (KAF)126124102
67UNDW1WHITE SALMON-NEAR UNDERWOOD08-13-2018DISCHARGE (KAF)167163102
68LYDM8KOOTENAI-LIBBY DAM08-13-2018INFLOW (KAF)980135872
69HHWM8SF FLATHEAD-HUNGRY HORSE DAM08-13-2018INFLOW (KAF)17523375
70KERM8FLATHEAD-KERR DAM08-13-2018INFLOW (KAF)1089136780
71NOXM8CLARK FORK-NOXON RAPIDS DAM08-13-2018INFLOW (KAF)2381296280
72CABI1CLARK FORK-CABINET GORGE DAM08-13-2018INFLOW (KAF)2620312384
73ALFW1PEND OREILLE-ALBENI FALLS DAM08-13-2018INFLOW (KAF)2710348978
74COEI1COEUR D ALENE-COEUR D ALENE LAKE08-13-2018INFLOW (KAF)22230274
75LLKW1SPOKANE-AT LONGLAKE08-13-2018INFLOW (KAF)61269288
76GCDW1COLUMBIA-GRAND COULEE DAM08-13-2018INFLOW (KAF)168601832492
77CHJW1COLUMBIA-CHIEF JOSEPH DAM08-13-2018INFLOW (KAF)164101921685
78WELW1COLUMBIA-WELLS DAM08-13-2018INFLOW (KAF)167651948486
79CHDW1CHELAN-LAKE CHELAN DAM08-13-2018INFLOW (KAF)14818480
80RRHW1COLUMBIA-ROCKY REACH DAM08-13-2018INFLOW (KAF)171411993086
81WANW1COLUMBIA-WANAPUM DAM08-13-2018INFLOW (KAF)173501918690
82PRWW1COLUMBIA-PRIEST RAPIDS DAM08-13-2018INFLOW (KAF)173501949189
83KEDW1YAKIMA-KEECHELUS LAKE08-13-2018INFLOW (KAF)4535129
84KADW1KACHESS-KACHESS DAM08-13-2018INFLOW (KAF)3024123
85CLUW1CLE ELUM-CLE ELUM LAKE08-13-2018INFLOW (KAF)697790
86BUDW1BUMPING-BUMPING LAKE DAM08-13-2018INFLOW (KAF)2824114
87RILW1TIETON-RIMROCK LAKE NEAR RIMROCK08-13-2018INFLOW (KAF)6461104
88IPDI1HENRYS FORK-ISLAND PARK DAM08-13-2018INFLOW (KAF)151134113
89JLKW4SNAKE-JACKSON LAKE AT DAM08-13-2018INFLOW (KAF)148128116
90PLDI1SF SNAKE-PALISADES DAM08-13-2018INFLOW (KAF)11121012110
91RIDI1WILLOW CREEK-RIRIE DAM08-13-2018INFLOW (KAF)5678
92AFRI1SNAKE-AMERICAN FALLS RESERVOIR08-13-2018INFLOW (KAF)18851291146
93MACI1BIG LOST-MACKAY RESERVOIR NEAR MACKAY08-13-2018INFLOW (KAF)3817226
94MAGI1BIG WOOD-MAGIC DAM08-13-2018INFLOW (KAF)162857
95LWRI1LITTLE WOOD-LITTLE WOOD DAM08-13-2018INFLOW (KAF)1715115
96OWYO3OWYHEE-OWYHEE DAM08-13-2018INFLOW (KAF)475585
97ARAI1SF BOISE-ANDERSON RANCH DAM08-13-2018INFLOW (KAF)686899
98LUCI1BOISE-LUCKY PEAK DAM08-13-2018INFLOW (KAF)303MM
99WRMO3MALHEUR-WARM SPRINGS DAM08-13-2018INFLOW (KAF)447634
100BERO3MALHEUR-AGENCY VALLEY DAM08-13-2018INFLOW (KAF)8985
101BULO3BULLY CREEK-BULLY CREEK DAM08-13-2018INFLOW (KAF)10197
102CSDI1NF PAYETTE-CASCADE DAM08-13-2018INFLOW (KAF)8275110
103DEDI1DEADWOOD-NEAR LOWMAN08-13-2018INFLOW (KAF)171892
104BRNI1SNAKE-BROWNLEE DAM08-13-2018INFLOW (KAF)2981330490
105DWRI1NF CLEARWATER-DWORSHAK DAM08-13-2018INFLOW (KAF)32137885
106LGDW1SNAKE-LOWER GRANITE DAM08-13-2018INFLOW (KAF)5664608993
107LGSW1SNAKE-LITTLE GOOSE DAM08-13-2018INFLOW (KAF)5664612193
108LMNW1SNAKE-LOWER MONUMENTAL DAM08-13-2018INFLOW (KAF)5678612793
109IHDW1SNAKE-ICE HARBOR DAM08-13-2018INFLOW (KAF)5681604594
110MCDW1COLUMBIA-MCNARY DAM08-13-2018INFLOW (KAF)234682657788
111JDAO3COLUMBIA-JOHN DAY DAM08-13-2018INFLOW (KAF)239932707189
112TDAO3COLUMBIA-THE DALLES DAM08-13-2018INFLOW (KAF)245842854286
113BONO3COLUMBIA-BONNEVILLE DAM08-13-2018INFLOW (KAF)250622979384
114HOPI1PEND OREILLE-PEND OREILLE LAKE NR HOPE08-13-2018LAKE ELEVATION (FT)MMM
115BFEI1KOOTENAI-AT BONNERS FERRY08-13-2018STAGE (FT)MMM
116SJMI1ST JOE-AT ST MARIES08-13-2018STAGE (FT)MMM